Terminal Aerodrome Forecast
Issued by NWS

Home | Current Version | Previous Version | Text Only | Print | Product List | Glossary On
Versions: 1 2 3 4 5 6 7 8 9 10 11 12 13 14 15 16 17 18 19 20
000
FTUS43 KJKL 250300 AAA
TAFSME
TAF AMD
KSME 250345Z 2504/2524 VRB03KT 5SM BR FEW250
     FM250600 VRB03KT 6SM BR SCT100 BKN250
     FM251400 19005KT P6SM OVC100
     FM252200 20005KT P6SM -RA OVC040=

USA.gov is the U.S. government's official web portal to all federal, state and local government web resources and services.